Location: Newark
(25.4297°S, 49.2719°W)
Time: 13:56:23
(UTC+00:00)

Vanguard 1 Rocket - Pass Details

Date: 22 November 2019
Orbit: 650 x 4226 km, 34.3° (Epoch: 09 December)

Event Time Altitude Azimuth Distance (km) Brightness Sun altitude
Rises 15:02:59 0° 312° (NW) 5,574 11.5 84.7°
Reaches altitude 10° 15:05:57 10° 314° (NW) 4,936 11.4 84.7°
Maximum altitude 15:21:56 72° 36° (NE) 3,629 12.2 83.2°
Drops below altitude 10° 15:47:51 10° 114° (ESE) 7,438 12.0 78.4°
Sets 15:53:38 0° 115° (ESE) 8,387 12.2 77.2°
